Погода в Усть-Омчуге

Россия / Магаданская область     61°08′01″N   149°38′05″E
В апреле 2022 года жителям России запретили посещать сайт meteo.paraplan.net по решению Генеральной прокуратуры. Аудитория сайта уменьшилась в 10 раз. Владельцы сайта не видят смысла в поддержке погодного сервера в таких условиях. Сайт будет закрыт в октябре.
темп.,
°C
ветер,
м/с
пор.,
м/с
влажн.,
%
обл.,
%
осадки,
мм/ч
давл.,
гПа
погр.,
м
6 октября, чт
чт623:00−12ссз2395100 0.5 99170
02:00−12сз229698 0.2 99143
05:00−13ссз1196100 0.3 99220
08:00−13зсз1196100 0.1 99421
11:00−10сз2283100 0.1 995311
14:00−8сз246689 0.1 995983
17:00−10зсз117951 0.1 99810
20:00−14ююз1188100 0.0 100210
7 октября, пт
пт723:00−15ююз1191100 0.0 10059
02:00−15зюз0193100 0.0 10079
05:00−16юз0194100 0.0 10109
08:00−16в0197100 0.0 10139
11:00−11ссз118981 0.0 1013127
14:00−9ссз128153 0.0 1012311
17:00−10сз118894 0.0 101410
20:00−15всв0196100 0.0 10179
8 октября, сб
сб823:00−17ююв119972 0.0 10199
02:00−19юв119984 0.0 10209
05:00−19ю119863 0.0 10219
08:00−20ю119862 0.0 10219
11:00−13юз118751 0.0 1019119
14:00−9юз127527 0.0 1017290
17:00−10з11845 0.0 101710
20:00−16юз11925 0.0 102010
9 октября, вс
вс923:00−18ююз229613 0.0 102110
02:00−19ююз119937 0.0 10209
05:00−19ю019956 0.0 10209
08:00−20ю019961 0.0 10219
11:00−13ссз119157 0.0 101893
14:00−10сз118445 0.0 1015197
17:00−11сз119152 0.0 101510
20:00−16ссз119983 0.0 10189
10 октября, пн
пн1023:00−16с009878 0.1 10189
02:00−18ссз009989 0.0 10189
05:00−19сз0010090 0.1 10199
08:00−20зсз0010081 0.0 10209
11:00−15ссз118940 0.0 1018110
14:00−12ссз117965 0.0 1017227
17:00−13с1187100 0.0 101810
20:00−15с1193100 0.0 102010